DW9313 Weather Reports


Display with metric or nautical units.
time (UTC)temp
F
wind
direction
speed
MPH
gust
MPH
rain 1hr
in
rain 24hr
in
rain mn
in
humidity
%
barometer
mb
20260505003321 49 313 3.0 6.0 0.00 0.01 0.00 88 1016.4
20260505002822 50 304 2.0 5.0 0.00 0.01 0.00 88 1016.4
20260505002320 50 310 2.0 6.0 0.00 0.01 0.00 88 1016.5
20260505001821 50 305 2.0 5.0 0.00 0.01 0.00 88 1016.4
20260505000821 51 307 2.0 5.0 0.00 0.01 0.00 88 1016.4
20260505000322 51 307 2.0 5.0 0.00 0.01 0.00 88 1016.4
20260504235822 51 311 3.0 7.0 0.00 0.01 0.00 88 1016.5
20260504235321 51 315 3.0 6.0 0.00 0.01 0.00 88 1016.6
20260504234822 51 312 3.0 6.0 0.00 0.01 0.00 88 1016.6
20260504233821 52 311 3.0 6.0 0.00 0.01 0.00 87 1016.5
20260504232321 52 301 1.0 2.0 0.00 0.01 0.00 86 1016.4
20260504231821 52 310 1.0 5.0 0.00 0.01 0.00 86 1016.5
20260504231322 53 312 1.0 3.0 0.00 0.01 0.00 86 1016.5
20260504230322 53 306 1.0 5.0 0.00 0.01 0.00 86 1016.4
20260504225821 53 313 1.0 3.0 0.00 0.01 0.01 86 1016.4
20260504224822 53 307 2.0 5.0 0.00 0.01 0.01 86 1016.4
20260504224322 53 310 2.0 5.0 0.00 0.01 0.01 86 1016.4
20260504223821 53 311 1.0 3.0 0.00 0.01 0.01 86 1016.5
20260504223322 53 310 1.0 3.0 0.00 0.01 0.01 86 1016.5
20260504222825 53 312 3.0 6.0 0.00 0.01 0.01 86 1016.6
20260504222322 53 312 2.0 6.0 0.00 0.01 0.01 85 1016.6
20260504221821 53 312 2.0 3.0 0.00 0.01 0.01 85 1016.6
20260504221323 54 312 2.0 5.0 0.00 0.01 0.01 85 1016.6
20260504220821 54 310 2.0 5.0 0.00 0.01 0.01 85 1016.7
20260504220322 54 312 2.0 5.0 0.00 0.01 0.01 85 1016.6
20260504215823 54 310 2.0 3.0 0.00 0.01 0.01 84 1016.6
20260504215321 54 318 1.0 2.0 0.00 0.01 0.01 84 1016.6
20260504214822 54 313 1.0 3.0 0.00 0.01 0.01 84 1016.6
20260504214322 54 316 1.0 3.0 0.00 0.01 0.01 84 1016.6
20260504213823 54 318 1.0 3.0 0.00 0.01 0.01 84 1016.6
20260504213322 54 314 1.0 2.0 0.00 0.01 0.01 84 1016.6
20260504212823 54 315 0.0 2.0 0.00 0.01 0.01 84 1016.6
20260504212322 54 317 1.0 2.0 0.00 0.01 0.01 85 1016.6
20260504211822 54 324 1.0 3.0 0.00 0.01 0.01 85 1016.6
20260504210823 54 311 1.0 2.0 0.00 0.01 0.01 85 1016.5
20260504210322 54 278 0.0 1.0 0.00 0.01 0.01 86 1016.6
20260504205824 54 277 0.0 1.0 0.00 0.01 0.01 86 1016.5
20260504205323 55 276 0.0 2.0 0.00 0.01 0.01 85 1016.5
20260504204822 55 308 0.0 0.0 0.00 0.01 0.01 85 1016.4
20260504204323 55 308 0.0 0.0 0.00 0.01 0.01 85 1016.4
20260504203322 55 308 0.0 0.0 0.00 0.01 0.01 85 1016.4
20260504202323 55 306 0.0 2.0 0.00 0.01 0.01 85 1016.3
20260504201823 55 299 0.0 1.0 0.00 0.01 0.01 85 1016.2
20260504201323 55 306 0.0 0.0 0.00 0.01 0.01 85 1016.2
20260504200822 55 284 0.0 1.0 0.00 0.01 0.01 85 1016.2
20260504195824 55 304 0.0 0.0 0.00 0.01 0.01 85 1016.2
20260504195324 55 308 0.0 1.0 0.00 0.01 0.01 85 1016.2
20260504194325 55 311 0.0 0.0 0.00 0.01 0.01 86 1016.2
20260504193823 55 311 0.0 0.0 0.00 0.01 0.01 86 1016.2
20260504193324 55 311 0.0 0.0 0.00 0.01 0.01 86 1016.2
20260504192824 55 311 0.0 0.0 0.00 0.01 0.01 86 1016.1
20260504191825 55 305 0.0 0.0 0.00 0.01 0.01 86 1016.0
20260504191323 55 305 0.0 0.0 0.00 0.01 0.01 86 1016.0
20260504190823 55 305 0.0 0.0 0.00 0.01 0.01 86 1016.0
20260504190325 55 305 0.0 0.0 0.00 0.01 0.01 86 1016.0
20260504185823 55 304 0.0 0.0 0.00 0.01 0.01 86 1016.0
20260504185324 55 306 0.0 0.0 0.00 0.01 0.01 86 1016.0
20260504184825 55 308 0.0 0.0 0.00 0.01 0.01 86 1016.0
20260504184323 55 304 0.0 2.0 0.00 0.01 0.01 86 1016.0
20260504183823 55 306 1.0 2.0 0.00 0.01 0.01 86 1016.0
20260504183323 55 304 1.0 2.0 0.00 0.01 0.01 86 1016.0
20260504182824 55 310 0.0 2.0 0.01 0.01 0.01 86 1016.0
20260504182323 55 303 0.0 2.0 0.01 0.01 0.01 86 1015.9
20260504181823 55 295 0.0 1.0 0.01 0.01 0.01 86 1015.9
20260504181324 55 265 0.0 1.0 0.01 0.01 0.01 86 1015.9
20260504180825 55 119 0.0 1.0 0.01 0.01 0.01 86 1015.9
20260504180323 55 119 0.0 0.0 0.01 0.01 0.01 86 1015.9
20260504175824 55 119 0.0 1.0 0.01 0.01 0.01 87 1015.8
20260504175326 55 100 0.0 0.0 0.01 0.01 0.01 87 1015.8
20260504174824 54 273 0.0 0.0 0.01 0.01 0.01 87 1015.9
20260504174323 55 294 0.0 0.0 0.01 0.01 0.01 87 1016.0
20260504173826 55 298 0.0 2.0 0.01 0.01 0.01 87 1015.9
20260504173323 55 303 1.0 2.0 0.01 0.01 0.01 87 1016.0
20260504172824 55 300 1.0 3.0 0.00 0.00 0.00 86 1016.0
20260504172323 56 303 0.0 2.0 0.00 0.00 0.00 84 1016.0
20260504171824 56 295 0.0 3.0 0.00 0.00 0.00 83 1016.0
20260504171324 57 240 0.0 3.0 0.00 0.00 0.00 82 1016.0
20260504170326 57 264 0.0 1.0 0.00 0.00 0.00 81 1015.9
20260504160325 58 109 1.0 2.0 0.00 0.00 0.00 77 1015.8
20260504150827 58 112 0.0 3.0 0.00 0.00 0.00 75 1016.0
20260504150325 59 184 0.0 2.0 0.00 0.00 0.00 75 1016.0
20260504141325 60 101 1.0 2.0 0.00 0.00 0.00 75 1015.9
20260504140326 60 113 0.0 3.0 0.00 0.00 0.00 75 1015.9
20260504110327 59 309 2.0 5.0 0.00 0.00 0.00 77 1015.8
20260504100328 58 206 1.0 3.0 0.00 0.00 0.00 76 1015.5
20260504081828 56 292 2.0 8.0 0.00 0.00 0.00 80 1014.9
20260504080829 57 104 1.0 3.0 0.00 0.00 0.00 79 1014.8
20260504080332 56 156 2.0 6.0 0.00 0.00 0.00 81 1014.7
20260504070329 53 308 2.0 5.0 0.00 0.02 0.00 87 1014.3
20260504050330 49 302 1.0 3.0 0.00 0.02 0.00 93 1013.6
20260504045831 49 312 1.0 3.0 0.00 0.02 0.00 93 1013.6
20260504045330 49 306 1.0 3.0 0.00 0.02 0.00 93 1013.6
20260504044830 49 307 1.0 3.0 0.00 0.02 0.00 93 1013.6
20260504043831 49 312 1.0 2.0 0.00 0.02 0.00 93 1013.6
20260504043330 48 311 2.0 5.0 0.00 0.02 0.00 92 1013.6
20260504042830 49 312 2.0 3.0 0.00 0.02 0.00 92 1013.6
20260504042331 49 311 2.0 5.0 0.00 0.02 0.00 92 1013.6
20260504040831 49 304 5.0 7.0 0.00 0.02 0.00 92 1013.6
20260504040331 49 317 3.0 6.0 0.00 0.02 0.00 92 1013.6
20260504035830 49 319 4.0 6.0 0.00 0.02 0.00 92 1013.6
20260504035331 49 311 3.0 6.0 0.00 0.02 0.00 92 1013.6
20260504034331 49 311 2.0 6.0 0.00 0.02 0.00 91 1013.5
20260504033831 49 315 3.0 6.0 0.00 0.02 0.00 91 1013.5
20260504033331 49 303 3.0 6.0 0.00 0.02 0.00 91 1013.4
20260504032832 49 307 2.0 5.0 0.00 0.02 0.00 91 1013.3
20260504032330 49 308 1.0 3.0 0.00 0.02 0.00 91 1013.3
20260504031831 49 319 0.0 2.0 0.00 0.02 0.00 91 1013.3
20260504031331 49 311 1.0 2.0 0.00 0.02 0.00 91 1013.2
20260504030831 49 313 2.0 5.0 0.00 0.02 0.00 91 1013.2
20260504030331 48 312 2.0 6.0 0.00 0.02 0.00 91 1013.2
20260504025831 48 308 2.0 5.0 0.00 0.02 0.00 91 1013.2
20260504025332 48 311 2.0 6.0 0.00 0.02 0.00 91 1013.2
20260504024331 48 311 2.0 5.0 0.00 0.02 0.00 90 1013.2
20260504023831 49 318 1.0 3.0 0.00 0.02 0.00 90 1013.2
20260504023332 49 311 1.0 2.0 0.00 0.02 0.00 90 1013.1
20260504022331 49 315 1.0 2.0 0.00 0.02 0.00 89 1013.1
20260504021831 49 314 1.0 3.0 0.00 0.02 0.00 89 1013.1
20260504021333 49 320 2.0 5.0 0.00 0.02 0.00 89 1013.1
20260504020831 49 314 2.0 6.0 0.00 0.02 0.00 89 1013.2
20260504015834 50 312 2.0 5.0 0.00 0.02 0.00 88 1013.1
20260504015332 50 315 2.0 5.0 0.00 0.02 0.00 88 1013.1
20260504014831 50 305 2.0 5.0 0.00 0.02 0.00 88 1013.2
20260504014333 50 308 1.0 2.0 0.00 0.02 0.00 88 1013.2
20260504013831 50 303 1.0 2.0 0.00 0.02 0.00 88 1013.2
20260504013332 50 315 1.0 2.0 0.00 0.02 0.00 88 1013.1
20260504012833 50 302 0.0 1.0 0.00 0.02 0.00 88 1013.2
20260504012332 50 305 0.0 2.0 0.00 0.02 0.00 88 1013.1
20260504011832 50 306 1.0 3.0 0.00 0.02 0.00 88 1013.2
20260504011333 51 300 2.0 3.0 0.00 0.02 0.00 88 1013.2
20260504010831 51 309 1.0 6.0 0.00 0.02 0.00 88 1013.2
20260504010333 51 316 2.0 6.0 0.00 0.02 0.00 88 1013.2
20260504005831 51 312 2.0 5.0 0.00 0.02 0.00 88 1013.0
20260504005333 51 302 1.0 2.0 0.00 0.02 0.00 87 1013.1
20260504004833 51 280 0.0 2.0 0.00 0.02 0.00 87 1013.1
20260504004332 51 296 0.0 2.0 0.00 0.02 0.00 87 1013.1